Location: Binningen
(47.7924°N, 8.7261°E)
Time: 19:14:29
(UTC+00:00)

Cosmos 1733 Rocket - Pass Details

Date: 08 October 2021
Orbit: 604 x 627 km, 82.5° (Epoch: 21 October)

Event Time Altitude Azimuth Distance (km) Brightness Sun altitude
Rises 01:46:41 0° 2° (N) 2,907 7.0 -36.8°
Reaches altitude 10° 01:49:26 10° 20° (NNE) 2,000 6.2 -36.5°
Enters shadow 01:51:26 18° 45° (NE) 1,548 5.7 -36.2°
